East Milton, MA

2:47 AM EST on November 22, 2017 (GMT -0500)
East Milton

Weather History for KMQE - June, 2014

Change the Weather History Date:

Wednesday, June 4, 2014

  Actual Average (KOWD) Record (KOWD)
Temperature  
Mean Temperature 58 °F -  
Max Temperature 64 °F 70 °F 86 °F (2005)
Min Temperature 53 °F 48 °F 37 °F (2002)
Degree Days  
Heating Degree Days 6    
Growing Degree Days 8 (Base 50)    
Moisture  
Dew Point 53 °F    
Average Humidity 85    
Maximum Humidity 100    
Minimum Humidity 58    
Precipitation  
Precipitation 0.11 in - - ()
Sea Level Pressure  
Sea Level Pressure 29.86 in    
Wind  
Wind Speed 7 mph (ESE)    
Max Wind Speed 10 mph    
Max Gust Speed -    
Averages and records for this station are not official NWS values.
T = Trace of Precipitation, MM = Missing Value Source: NWS Daily Summary

Daily Weather History Graph

Daily Weather History Graph

Search for Another Location

Airport or City:

Trip Planner

Search our weather history database for the weather conditions in past years. The results will help you decide how hot, cold, wet, or windy it might be!

Date:

Astronomy

Jun. 04, 2014 Rise Set
Actual Time 5:09 AM EDT 8:16 PM EDT
Civil Twilight 4:35 AM EDT 8:50 PM EDT
Nautical Twilight 3:51 AM EDT 9:34 PM EDT
Astronomical Twilight 3:00 AM EDT 10:26 PM EDT
Moon 11:30 AM EDT (6/4) 12:09 AM EDT (6/4)
Length of Visible Light 16h 15m
Length of Day
15h 06m
Waxing Crescent, 39% of the Moon is Illuminated
Jun 4
Waxing Crescent
Jun 5
First Quarter
Jun 13
Full
Jun 19
Last Quarter
Jun 27
New

Hourly Weather History & Observations

Time (EDT) Temp. Dew Point Humidity Pressure Visibility Wind Dir Wind Speed Gust Speed Precip Events Conditions
12:54 AM 57.9 °F 43.0 °F 58% 29.91 in - SE 10.4 mph - N/A   Unknown
1:54 AM 57.0 °F 44.1 °F 62% 29.88 in - SE 10.4 mph - N/A   Unknown
2:54 AM 57.0 °F 43.0 °F 59% 29.89 in - SW 3.5 mph - N/A   Unknown
3:54 AM 55.9 °F 45.0 °F 67% 29.88 in - East 3.5 mph - N/A   Unknown
4:54 AM 54.0 °F 46.9 °F 77% 29.90 in - ESE 4.6 mph - 0.01 in   Unknown
5:54 AM 53.1 °F 48.9 °F 86% 29.89 in - SE 10.4 mph - 0.01 in   Unknown
6:54 AM 53.1 °F 50.0 °F 89% 29.91 in - Calm Calm - 0.04 in   Unknown
7:54 AM 53.1 °F 52.0 °F 96% 29.91 in - East 5.8 mph - N/A   Unknown
8:54 AM 53.1 °F 52.0 °F 96% 29.91 in - East 6.9 mph - 0.03 in   Unknown
9:54 AM 55.0 °F 53.1 °F 93% 29.91 in - ESE 5.8 mph - 0.02 in   Unknown
10:54 AM 57.0 °F 54.0 °F 89% 29.90 in - SE 4.6 mph - N/A   Unknown
11:54 AM 60.1 °F 55.0 °F 83% 29.88 in - SSE 4.6 mph - N/A   Unknown
12:54 PM 61.0 °F 55.9 °F 83% 29.88 in - ESE 3.5 mph - N/A   Unknown
1:54 PM 60.1 °F 55.9 °F 86% 29.85 in - ENE 5.8 mph - N/A   Unknown
2:54 PM 61.0 °F 57.9 °F 90% 29.84 in - ESE 5.8 mph - N/A   Unknown
3:54 PM 63.0 °F 57.9 °F 84% 29.82 in - SE 6.9 mph - N/A   Unknown
4:54 PM 64.0 °F 59.0 °F 84% 29.82 in - East 5.8 mph - N/A   Unknown
5:54 PM 59.0 °F 57.0 °F 93% 29.82 in - ENE 9.2 mph - N/A   Unknown
6:54 PM 60.1 °F 57.0 °F 90% 29.82 in - ENE 6.9 mph - N/A   Unknown
7:54 PM 60.1 °F 57.9 °F 93% 29.82 in - South 8.1 mph - N/A   Unknown
8:54 PM 57.9 °F 55.9 °F 93% 29.81 in - East 3.5 mph - N/A   Unknown
9:54 PM 59.0 °F 57.0 °F 93% 29.83 in - SE 4.6 mph - N/A   Unknown
10:54 PM 57.0 °F 55.9 °F 96% 29.83 in - NE 4.6 mph - N/A   Unknown
11:54 PM 57.9 °F 57.9 °F 100% 29.82 in - SSE 3.5 mph - N/A   Unknown